KPF72K LDSP-LOWS

Flight info

Callsign KPF72K
Flight time 0h 54m
Altitude 40000
Route ZDA DCT ALIVO DCT RASTA RASTA2R
Aircraft CL60/M-SBDE1E2E3FGHIJ1J4J5J7M3RWXYZ/LB1V1D1

Departure

Time 2026-05-05 18:44
Airport Split Saint Jerome Airport (LDSP)

Arrival

Time 2026-05-05 19:39
Airport Salzburg Airport (LOWS)
Time Latitude Longitude Altitude Speed Heading
2026-05-05 18:33 43.53543 16.29735 56 ft 0 kts 105°
2026-05-05 18:41 43.53542 16.29737 56 ft 1 kts 119°
2026-05-05 18:41 43.53532 16.29733 56 ft 2 kts 260°
2026-05-05 18:41 43.53536 16.29692 57 ft 6 kts 278°
2026-05-05 18:42 43.53571 16.29637 58 ft 9 kts 328°
2026-05-05 18:42 43.53631 16.29579 59 ft 12 kts 329°
2026-05-05 18:42 43.53682 16.29570 60 ft 5 kts 341°
2026-05-05 18:42 43.53695 16.29509 60 ft 9 kts 263°
2026-05-05 18:43 43.53709 16.29464 61 ft 5 kts 17°
2026-05-05 18:43 43.53725 16.29494 61 ft 4 kts 64°
2026-05-05 18:43 43.53728 16.29500 61 ft 0 kts 50°
2026-05-05 18:44 43.53731 16.29504 61 ft 10 kts 51°
2026-05-05 18:44 43.54031 16.30046 58 ft 127 kts 52°
2026-05-05 18:44 43.54682 16.31247 632 ft 172 kts 58°
2026-05-05 18:44 43.55163 16.32653 1892 ft 171 kts 89°
2026-05-05 18:45 43.54701 16.34069 3045 ft 177 kts 144°
2026-05-05 18:45 43.53681 16.34984 4386 ft 187 kts 149°
2026-05-05 18:45 43.52517 16.35707 5687 ft 195 kts 175°
2026-05-05 18:45 43.51091 16.35325 6302 ft 237 kts 213°
2026-05-05 18:46 43.49950 16.33556 7350 ft 259 kts 247°
2026-05-05 18:46 43.49765 16.31134 8716 ft 269 kts 282°
2026-05-05 18:46 43.50637 16.28908 10215 ft 275 kts 309°
2026-05-05 18:46 43.51952 16.26919 11259 ft 297 kts 310°
2026-05-05 18:47 43.53386 16.24772 12314 ft 315 kts 310°
2026-05-05 18:47 43.54864 16.22539 13507 ft 325 kts 310°
2026-05-05 18:47 43.56384 16.20220 14738 ft 331 kts 310°
2026-05-05 18:47 43.57935 16.17845 15932 ft 337 kts 310°
2026-05-05 18:48 43.59504 16.15431 17085 ft 342 kts 310°
2026-05-05 18:48 43.61091 16.12984 18178 ft 347 kts 310°
2026-05-05 18:48 43.62704 16.10490 19252 ft 351 kts 310°
2026-05-05 18:48 43.64331 16.07966 20252 ft 355 kts 309°
2026-05-05 18:49 43.65962 16.05432 21214 ft 360 kts 309°
2026-05-05 18:49 43.67625 16.02840 22132 ft 364 kts 309°
2026-05-05 18:49 43.69336 16.00170 22995 ft 370 kts 309°
2026-05-05 18:49 43.71042 15.97503 23877 ft 374 kts 309°
2026-05-05 18:50 43.72760 15.94814 24753 ft 377 kts 309°
2026-05-05 18:50 43.74514 15.92062 25581 ft 381 kts 309°
2026-05-05 18:50 43.76257 15.89324 26433 ft 382 kts 309°
2026-05-05 18:50 43.78020 15.86552 27180 ft 386 kts 309°
2026-05-05 18:51 43.79796 15.83754 27857 ft 390 kts 309°
2026-05-05 18:51 43.81599 15.80910 28521 ft 393 kts 309°
2026-05-05 18:51 43.83409 15.78051 29166 ft 396 kts 309°
2026-05-05 18:51 43.85225 15.75180 29756 ft 399 kts 308°
2026-05-05 18:52 43.87068 15.72262 30326 ft 402 kts 309°
2026-05-05 18:52 43.88917 15.69331 30883 ft 405 kts 309°
2026-05-05 18:52 43.90752 15.66420 31454 ft 406 kts 308°
2026-05-05 18:52 43.92621 15.63451 31981 ft 408 kts 308°
2026-05-05 18:53 43.94507 15.60451 32477 ft 409 kts 308°
2026-05-05 18:53 43.96362 15.57498 32983 ft 409 kts 308°
2026-05-05 18:53 43.98230 15.54523 33561 ft 407 kts 308°
2026-05-05 18:53 44.00088 15.51558 34222 ft 402 kts 308°
2026-05-05 18:54 44.01901 15.48665 34897 ft 398 kts 308°
2026-05-05 18:54 44.03725 15.45748 35386 ft 398 kts 308°
2026-05-05 18:54 44.05528 15.42865 35814 ft 399 kts 308°
2026-05-05 18:54 44.07483 15.40097 36231 ft 402 kts 314°
2026-05-05 18:55 44.09719 15.37665 36623 ft 407 kts 322°
2026-05-05 18:55 44.12212 15.35652 37035 ft 412 kts 329°
2026-05-05 18:55 44.14888 15.34141 37418 ft 417 kts 336°
2026-05-05 18:55 44.17689 15.32931 37770 ft 419 kts 337°
2026-05-05 18:56 44.20470 15.31746 38127 ft 419 kts 337°
2026-05-05 18:56 44.23268 15.30548 38429 ft 420 kts 337°
2026-05-05 18:56 44.26060 15.29352 38731 ft 420 kts 337°
2026-05-05 18:56 44.28853 15.28154 39008 ft 421 kts 338°
2026-05-05 18:57 44.31678 15.26941 39309 ft 421 kts 338°
2026-05-05 18:57 44.34474 15.25739 39547 ft 422 kts 338°
2026-05-05 18:57 44.37304 15.24521 39813 ft 422 kts 338°
2026-05-05 18:57 44.40101 15.23316 40006 ft 424 kts 338°
2026-05-05 18:58 44.45818 15.20846 39999 ft 432 kts 338°
2026-05-05 18:58 44.51595 15.18347 39994 ft 436 kts 338°
2026-05-05 18:59 44.57400 15.15832 39999 ft 437 kts 338°
2026-05-05 18:59 44.63238 15.13298 39995 ft 436 kts 338°
2026-05-05 19:00 44.69039 15.10774 40006 ft 436 kts 338°
2026-05-05 19:00 44.74842 15.08243 40008 ft 437 kts 338°
2026-05-05 19:01 44.80668 15.05696 40003 ft 437 kts 338°
2026-05-05 19:01 44.86471 15.03155 40004 ft 437 kts 338°
2026-05-05 19:02 44.92280 15.00605 40004 ft 437 kts 338°
2026-05-05 19:02 44.98121 14.98036 39982 ft 438 kts 338°
2026-05-05 19:03 45.03955 14.95464 39982 ft 439 kts 338°
2026-05-05 19:03 45.09782 14.92889 39978 ft 440 kts 338°
2026-05-05 19:04 45.15660 14.90286 39985 ft 440 kts 338°
2026-05-05 19:04 45.21518 14.87687 39985 ft 441 kts 338°
2026-05-05 19:05 45.27377 14.85082 39983 ft 441 kts 338°
2026-05-05 19:05 45.33214 14.82481 39978 ft 441 kts 338°
2026-05-05 19:06 45.39094 14.79855 39965 ft 442 kts 339°
2026-05-05 19:06 45.44975 14.77223 39974 ft 442 kts 339°
2026-05-05 19:07 45.49868 14.75028 39970 ft 442 kts 339°
2026-05-05 19:07 45.56513 14.71213 39966 ft 440 kts 331°
2026-05-05 19:08 45.62097 14.67493 39962 ft 440 kts 332°
2026-05-05 19:08 45.67648 14.63794 39963 ft 441 kts 332°
2026-05-05 19:09 45.73199 14.60088 39957 ft 440 kts 332°
2026-05-05 19:09 45.78798 14.56345 39950 ft 441 kts 332°
2026-05-05 19:10 45.84357 14.52621 39953 ft 441 kts 332°
2026-05-05 19:10 45.89923 14.48885 39956 ft 442 kts 332°
2026-05-05 19:11 45.95545 14.45104 39951 ft 443 kts 332°
2026-05-05 19:11 46.01120 14.41347 39946 ft 444 kts 332°
2026-05-05 19:12 46.06712 14.37570 39959 ft 444 kts 332°
2026-05-05 19:12 46.12313 14.33778 39949 ft 443 kts 331°
2026-05-05 19:13 46.17818 14.30044 39948 ft 443 kts 331°
2026-05-05 19:13 46.23466 14.26204 39949 ft 443 kts 331°
2026-05-05 19:14 46.29055 14.22396 39950 ft 444 kts 331°
2026-05-05 19:14 46.34723 14.18524 39933 ft 444 kts 331°
2026-05-05 19:15 46.40321 14.14692 39929 ft 443 kts 331°
2026-05-05 19:15 46.43065 14.12815 39744 ft 431 kts 331°
2026-05-05 19:15 46.45757 14.10968 39166 ft 428 kts 331°
2026-05-05 19:16 46.48455 14.09114 38374 ft 430 kts 331°
2026-05-05 19:16 46.51160 14.07252 37518 ft 433 kts 331°
2026-05-05 19:16 46.53878 14.05378 36628 ft 435 kts 330°
2026-05-05 19:16 46.56624 14.03485 35784 ft 435 kts 330°
2026-05-05 19:17 46.59343 14.01609 35153 ft 432 kts 330°
2026-05-05 19:17 46.62039 13.99746 34559 ft 433 kts 330°
2026-05-05 19:17 46.64800 13.97834 33977 ft 438 kts 330°
2026-05-05 19:17 46.67564 13.95918 33406 ft 441 kts 330°
2026-05-05 19:18 46.70312 13.94012 32842 ft 444 kts 331°
2026-05-05 19:18 46.73123 13.92060 32263 ft 446 kts 331°
2026-05-05 19:18 46.75944 13.90099 31688 ft 449 kts 331°
2026-05-05 19:18 46.78773 13.88130 31116 ft 451 kts 331°
2026-05-05 19:19 46.81578 13.86176 30539 ft 453 kts 331°
2026-05-05 19:19 46.84467 13.84161 29922 ft 455 kts 331°
2026-05-05 19:19 46.87304 13.82180 29333 ft 457 kts 331°
2026-05-05 19:19 46.90168 13.80178 28732 ft 457 kts 331°
2026-05-05 19:20 46.93024 13.78180 28106 ft 455 kts 331°
2026-05-05 19:20 46.95902 13.76166 27493 ft 450 kts 331°
2026-05-05 19:20 46.98689 13.74212 26893 ft 446 kts 331°
2026-05-05 19:20 47.01474 13.72257 26338 ft 442 kts 331°
2026-05-05 19:21 47.04255 13.70302 25713 ft 440 kts 331°
2026-05-05 19:21 47.07022 13.68355 25144 ft 436 kts 331°
2026-05-05 19:21 47.09758 13.66427 24549 ft 434 kts 331°
2026-05-05 19:21 47.12461 13.64522 23987 ft 430 kts 331°
2026-05-05 19:22 47.15152 13.62622 23402 ft 427 kts 331°
2026-05-05 19:22 47.17863 13.60705 22846 ft 423 kts 331°
2026-05-05 19:22 47.20495 13.58842 22289 ft 420 kts 332°
2026-05-05 19:22 47.23132 13.56972 21739 ft 415 kts 331°
2026-05-05 19:23 47.25706 13.55147 21190 ft 412 kts 332°
2026-05-05 19:23 47.28270 13.53326 20640 ft 409 kts 332°
2026-05-05 19:23 47.30827 13.51507 20103 ft 406 kts 331°
2026-05-05 19:23 47.33361 13.49703 19564 ft 402 kts 332°
2026-05-05 19:24 47.35883 13.47906 19023 ft 399 kts 331°
2026-05-05 19:24 47.38369 13.46133 18504 ft 395 kts 331°
2026-05-05 19:24 47.40836 13.44371 17974 ft 393 kts 331°
2026-05-05 19:24 47.43280 13.42624 17444 ft 389 kts 332°
2026-05-05 19:25 47.45723 13.40875 16935 ft 387 kts 331°
2026-05-05 19:25 47.48148 13.39138 16421 ft 383 kts 332°
2026-05-05 19:25 47.50486 13.37257 15897 ft 379 kts 326°
2026-05-05 19:25 47.52700 13.35150 15399 ft 377 kts 324°
2026-05-05 19:26 47.54913 13.33033 14899 ft 374 kts 324°
2026-05-05 19:26 47.57095 13.30948 14394 ft 372 kts 324°
2026-05-05 19:26 47.59269 13.28867 13890 ft 368 kts 324°
2026-05-05 19:26 47.61401 13.26826 13413 ft 360 kts 324°
2026-05-05 19:27 47.63482 13.24834 12936 ft 351 kts 324°
2026-05-05 19:27 47.65512 13.22887 12474 ft 341 kts 324°
2026-05-05 19:27 47.67475 13.21003 12023 ft 332 kts 324°
2026-05-05 19:27 47.69413 13.19141 11571 ft 325 kts 324°
2026-05-05 19:28 47.71288 13.17338 11133 ft 318 kts 324°
2026-05-05 19:28 47.73137 13.15558 10705 ft 312 kts 324°
2026-05-05 19:28 47.74933 13.13829 10553 ft 298 kts 323°
2026-05-05 19:28 47.76685 13.12139 10054 ft 299 kts 323°
2026-05-05 19:29 47.78419 13.10465 9682 ft 294 kts 323°
2026-05-05 19:29 47.80111 13.08830 9273 ft 291 kts 323°
2026-05-05 19:29 47.81801 13.07196 8884 ft 286 kts 323°
2026-05-05 19:29 47.83453 13.05599 8515 ft 281 kts 323°
2026-05-05 19:30 47.85098 13.04007 8141 ft 278 kts 323°
2026-05-05 19:30 47.86716 13.02438 7772 ft 276 kts 323°
2026-05-05 19:30 47.88418 13.01119 7406 ft 280 kts 339°
2026-05-05 19:30 47.90316 13.00382 7050 ft 277 kts 341°
2026-05-05 19:31 47.92170 12.99748 6751 ft 275 kts 344°
2026-05-05 19:31 47.94047 12.99181 6432 ft 275 kts 345°
2026-05-05 19:31 47.95939 12.98618 6105 ft 273 kts 345°
2026-05-05 19:31 47.97800 12.98067 5768 ft 271 kts 344°
2026-05-05 19:32 47.99636 12.97528 5447 ft 267 kts 344°
2026-05-05 19:32 48.01459 12.97003 5111 ft 263 kts 345°
2026-05-05 19:32 48.03236 12.96496 4775 ft 258 kts 345°
2026-05-05 19:32 48.04980 12.95999 4434 ft 252 kts 345°
2026-05-05 19:33 48.06696 12.95470 4103 ft 248 kts 339°
2026-05-05 19:33 48.08069 12.94063 3999 ft 238 kts 303°
2026-05-05 19:33 48.08513 12.91727 4006 ft 241 kts 268°
2026-05-05 19:33 48.07858 12.89424 4010 ft 252 kts 232°
2026-05-05 19:34 48.06408 12.87830 4009 ft 261 kts 212°
2026-05-05 19:34 48.04635 12.87027 4010 ft 270 kts 192°
2026-05-05 19:34 48.02727 12.87186 4013 ft 279 kts 170°
2026-05-05 19:35 47.99189 12.89646 4028 ft 270 kts 173°
2026-05-05 19:35 47.97416 12.89754 4049 ft 247 kts 186°
2026-05-05 19:35 47.95725 12.90108 4051 ft 247 kts 166°
2026-05-05 19:35 47.94123 12.91043 4049 ft 239 kts 162°
2026-05-05 19:36 47.92619 12.91957 3985 ft 226 kts 163°
2026-05-05 19:36 47.91167 12.92859 3693 ft 225 kts 162°
2026-05-05 19:36 47.89762 12.93753 3429 ft 216 kts 162°
2026-05-05 19:36 47.88400 12.94623 3159 ft 205 kts 162°
2026-05-05 19:37 47.87122 12.95437 2883 ft 197 kts 162°
2026-05-05 19:37 47.85875 12.96232 2601 ft 185 kts 161°
2026-05-05 19:37 47.84769 12.96942 2410 ft 160 kts 161°
2026-05-05 19:37 47.83792 12.97568 2248 ft 151 kts 161°
2026-05-05 19:38 47.82847 12.98163 1981 ft 144 kts 160°
2026-05-05 19:38 47.81926 12.98744 1819 ft 142 kts 159°
2026-05-05 19:38 47.81007 12.99324 1631 ft 140 kts 159°
2026-05-05 19:38 47.80140 12.99876 1424 ft 128 kts 156°
2026-05-05 19:39 47.79429 13.00326 1419 ft 72 kts 156°
2026-05-05 19:39 47.79188 13.00481 1419 ft 24 kts 158°
2026-05-05 19:39 47.79119 13.00474 1419 ft 7 kts 241°
2026-05-05 19:39 47.79117 13.00384 1419 ft 10 kts 278°
2026-05-05 19:40 47.79127 13.00282 1419 ft 7 kts 284°
2026-05-05 19:40 47.79162 13.00233 1419 ft 7 kts 336°
2026-05-05 19:40 47.79238 13.00185 1419 ft 17 kts 336°
2026-05-05 19:40 47.79335 13.00120 1419 ft 15 kts 339°
2026-05-05 19:41 47.79437 13.00061 1418 ft 13 kts 338°
2026-05-05 19:41 47.79511 13.00014 1418 ft 10 kts 336°
2026-05-05 19:41 47.79555 12.99978 1418 ft 4 kts 310°
2026-05-05 19:41 47.79554 12.99919 1418 ft 6 kts 248°
2026-05-05 19:42 47.79547 12.99886 1419 ft 6 kts 269°
2026-05-05 19:42 47.79568 12.99865 1419 ft 1 kts 13°
2026-05-05 19:42 47.79583 12.99871 1418 ft 3 kts 14°
2026-05-05 19:42 47.79592 12.99875 1418 ft 0 kts 15°